Regional Weather Roundup
Issued by NWS

Home | Current Version | Previous Version | Graphics & Text | Print | Product List | Glossary On
Versions: 1 2 3 4 5 6 7 8 9 10 11 12 13 14 15 16 17 18 19 20 21 22 23 24 25 26 27 28 29 30 31 32 33 34 35 36 37 38 39 40 41 42 43 44 45 46 47 48 49 50
000
ASUS43 KMKX 160000
RWRWI

WISCONSIN REGIONAL WEATHER ROUNDUP
NATIONAL WEATHER SERVICE MILWAUKEE/SULLIVAN WI
700 PM CDT TUE APR 15 2014

NOTE: "FAIR" INDICATES FEW OR NO CLOUDS BELOW 12,000 FEET WITH NO
SIGNIFICANT WEATHER AND/OR OBSTRUCTIONS TO VISIBILITY.

WIZ001-002-006>008-014>016-023>028-160100-
NORTHWEST WISCONSIN

CITY           SKY/WX    TMP DP  RH WIND       PRES   REMARKS
SUPERIOR ARPT  CLEAR     33   2  27 SW5       30.06S WCI  28
ASHLAND        CLEAR     30   6  36 N7        30.07S WCI  23
6HR MIN TEMP:  25; 6HR MAX TEMP:  31;

HAYWARD        CLEAR     31  -1  25 VRB3      30.04S
6HR MIN TEMP:  27; 6HR MAX TEMP:  33;

SIREN          CLEAR     33   1  25 CALM      30.05S
RICE LAKE      NOT AVBL
LADYSMITH      PTCLDY    33   5  31 W6        30.06R WCI  27
EAU CLAIRE     CLEAR     35   5  28 SW8       30.07R WCI  29
6HR MIN TEMP:  31; 6HR MAX TEMP:  37;

MENOMONIE      CLEAR     36   4  26 SW5       30.06S WCI  32
NEW RICHMOND   PTCLDY    34   0  24 SW7       30.05S WCI  28
OSCEOLA        CLEAR     35   2  24 SW6       30.08S WCI  30
$$

WIZ003>005-009-010-017-018-160100-
NORTH CENTRAL WISCONSIN

CITY           SKY/WX    TMP DP  RH WIND       PRES   REMARKS
WOODRUFF       CLEAR     32   4  31 N7        30.02R WCI  25
RHINELANDER    CLEAR     26   4  38 W9        30.03R WCI  17
6HR MIN TEMP:  23; 6HR MAX TEMP:  28;

EAGLE RIVER    CLEAR     27   2  34 NW5       30.02R WCI  22
LAND O LAKES   CLEAR     27   1  32 N7        30.03R WCI  19
PHILLIPS       CLEAR     30   2  31 SW3       30.02S
TOMAHAWK       CLEAR     29   3  32 CALM      30.03S
MEDFORD        PTCLDY    30  11  46 SW7       30.04R WCI  23
MERRILL        MOCLDY    30   7  38 CALM      30.05R
$$

WIZ029-030-035-036-043>047-160100-
CENTRAL WISCONSIN

CITY           SKY/WX    TMP DP  RH WIND       PRES   REMARKS
WAUSAU         CLEAR     28   9  44 W8        30.06R WCI  20
6HR MIN TEMP:  26; 6HR MAX TEMP:  30; 6HR PCP: TRACE;

MOSINEE        PTCLDY    27  12  54 W6        30.08R WCI  20
MARSHFIELD     CLEAR     31   9  39 W6        30.06R WCI  25
6HR MIN TEMP:  28; 6HR MAX TEMP:  32;

STEVENS POINT  CLEAR     28  10  45 CALM      30.09S
WAUPACA        PTCLDY    34  16  47 W8        30.11S WCI  27
WAUTOMA        NOT AVBL
WISC RAPIDS    MOCLDY    31  11  43 SW7       30.10R WCI  24
6HR MIN TEMP:  28; 6HR MAX TEMP:  32; 6HR PCP: TRACE;

CAMP DOUGLAS   NOT AVBL
$$

WIZ011>013-019>022-031-037>040-048>050-160100-
NORTHEAST WISCONSIN

CITY           SKY/WX    TMP DP  RH WIND       PRES   REMARKS
ANTIGO         MOCLDY    25  11  55 SW8       30.04S WCI  16
STURGEON BAY   MOCLDY    28  14  54 W8G16     30.10R WCI  20
6HR MIN TEMP:  27; 6HR MAX TEMP:  30;

GREEN BAY      CLOUDY    31  15  52 W10       30.12R WCI  22
6HR MIN TEMP:  28; 6HR MAX TEMP:  33; 6HR PCP: TRACE;

MANITOWOC      NOT AVBL
APPLETON       MOCLDY    30  14  51 W12       30.11R WCI  21
CLINTONVILLE   PTCLDY    32  12  43 W9        30.10S WCI  24
OSHKOSH        MOCLDY    31  15  52 W6        30.11S WCI  25
6HR MIN TEMP:  29; 6HR MAX TEMP:  33; 6HR PCP: TRACE;

$$

WIZ032>034-041-042-053>061-160100-
SOUTHWEST WISCONSIN

CITY           SKY/WX    TMP DP  RH WIND       PRES   REMARKS
LA CROSSE      CLEAR     37  12  35 CALM      30.09S
6HR MIN TEMP:  33; 6HR MAX TEMP:  39;

SPARTA         CLEAR     35   7  31 W5        30.10S WCI  31
VIROQUA        FAIR      33  15  46 W7        30.08R WCI  27
BOSCOBEL       CLEAR     38  12  34 SW6       30.12R WCI  33
6HR MIN TEMP:  34; 6HR MAX TEMP:  40; 6HR PCP: TRACE;

PRAIRIE DU CHI CLEAR     37  12  35 W6        30.11S WCI  33
PLATTEVILLE    FAIR      36  17  46 SW8       30.11S WCI  30
$$

WIZ056-057-062-063-064-067-068-160100-
SOUTH CENTRAL WISCONSIN

CITY           SKY/WX    TMP DP  RH WIND       PRES   REMARKS
BARABOO/DELLS  CLEAR     33  14  46 CALM      30.10S
LONE ROCK      NOT AVBL
WATERTOWN      MOCLDY    33  14  45 NW3       30.11S
MADISON        PTCLDY    35  13  40 VRB3      30.12R
6HR MIN TEMP:  32; 6HR MAX TEMP:  37;

MIDDLETON      FAIR      35  16  45 W6        30.11S WCI  30
MONROE         PTCLDY    37  14  38 W10       30.10S WCI  29
JANESVILLE     PTCLDY    37  12  35 NW6       30.12R WCI  33
$$

WIZ051-052-058>065-066-070>072-160100-
SOUTHEAST WISCONSIN

CITY           SKY/WX    TMP DP  RH WIND       PRES   REMARKS
MILWAUKEE      MOCLDY    31  19  61 SE12      30.15R WCI  22
6HR MIN TEMP:  31; 6HR MAX TEMP:  35;

WAUKESHA       MOCLDY    32  12  43 NW6       30.13R WCI  26
MILWAUKEE/TIMM MOCLDY    34  10  37 NW7       30.14R WCI  28
RACINE         PTCLDY    30  19  63 S12       30.16S WCI  20
6HR MIN TEMP:  30; 6HR MAX TEMP:  32;

BURLINGTON     MOCLDY    34  14  42 SW8       30.12S WCI  28
KENOSHA        MOCLDY    31  19  61 SE14      30.14R WCI  21
6HR MIN TEMP:  31; 6HR MAX TEMP:  35;

FOND DU LAC    PTCLDY    32  16  51 NW7       30.12R WCI  26
6HR MIN TEMP:  30; 6HR MAX TEMP:  34;

SHEBOYGAN      FLURRIES  31  18  58 W6        30.13R WCI  25
6HR MIN TEMP:  29; 6HR MAX TEMP:  33; 6HR PCP: TRACE;

WEST BEND      CLEAR     32  10  40 W6        30.12R WCI  26
JUNEAU         PTCLDY    32  10  40 CALM      30.12S
$$

LSZ147-162-160100-
LAKE SUPERIOR

STATION/POSITION TIME  TEMP    WIND        PRES    WAVE
                       AIR SEA DIR/SP/G            HT/PER
                 (UTC) (F)     (DEG/KT/KT) (MB)    (FT/S)
DEVILS ISLAND    2300   28     220/ 10/ 12 1019.2S
PORT WING        2340   31     240/  7/  9 1018.3F
SAXON HARBOR     2340           60/  3/  3 1018.6S
$$

LMZ867-665-643>646-160100-
LAKE MICHIGAN

STATION/POSITION TIME  TEMP    WIND        PRES    WAVE
                       AIR SEA DIR/SP/G            HT/PER
                 (UTC) (F)     (DEG/KT/KT) (MB)    (FT/S)
NORTHPORT PIER   2300   28     200/  6/ 12 1019.0R
SISTER BAY       2323             CALM       N/A
KEWAUNEE LAKESHO 2300   32     260/ 11/ 15 1020.0R
SHEBOYGAN LAKESH 2300   33     280/ 10/ 12 1021.3R
PORT WASHINGTON  2300   32     170/ 11/ 13 1021.0R
MILWAUKEE LAKESH 2300   30     140/ 15/ 17   N/A
KENOSHA   LAKESH 2300   30     150/ 15/ 17   N/A
$$

TC  - TEMPERATURE IN CELSIUS
VSB - VISIBILITY IN STATUTE MILES
WCI - WIND CHILL INDEX
HX  - HEAT INDEX




USA.gov is the U.S. government's official web portal to all federal, state and local government web resources and services.